Rutherford County, North Carolina, United States
Lat: 35.39N, Lon: 81.98W
Wx Zone: NCZ508
Local Info
Past Weather Observations for Today

NOTE: This archive is for the closest National Weather Service station to Rutherford County. Information may differ from the station used for current weather conditions.

Click here for Long-term Archive

Time Weather Temperature Dewpoint Humidity Pressure Winds Precip Visibility
15:15
Partly Cloudy
46°F / 8°C 27°F / -3°C 46% 30.18 in
(1022 mb)
NW 13.8 mph
(NW 22 kph)
- 10SM
14:55
Mostly Cloudy
45°F / 7°C 27°F / -3°C 49% 30.15 in
(1021 mb)
NW 17.3 mph
(NW 28 kph)
- 10SM
14:35
Overcast
45°F / 7°C 28°F / -2°C 53% 30.15 in
(1021 mb)
NW 15 mph
(NW 24 kph)
- 10SM
14:15
Overcast
45°F / 7°C 28°F / -2°C 53% 30.15 in
(1021 mb)
NW 11.5 mph
(NW 19 kph)
- 10SM
13:55
Overcast
46°F / 8°C 27°F / -3°C 46% 30.12 in
(1020 mb)
NW 12.7 mph
(NW 20 kph)
- 10SM
13:35
Mostly Cloudy
48°F / 9°C 28°F / -2°C 46% 30.12 in
(1020 mb)
WNW 17.3 mph
(WNW 28 kph)
- 10SM
13:15
Partly Cloudy
48°F / 9°C 28°F / -2°C 46% 30.12 in
(1020 mb)
WNW 15 mph
(WNW 24 kph)
- 10SM
12:50
Partly Cloudy
48°F / 9°C 28°F / -2°C 46% 30.12 in
(1020 mb)
NW 16.1 mph
(NW 26 kph)
- 10SM
12:30
Partly Cloudy
48°F / 9°C 30°F / -1°C 50% 30.12 in
(1020 mb)
NW 15 mph
(NW 24 kph)
- 10SM
12:15
Partly Cloudy
50°F / 10°C 28°F / -2°C 43% 30.12 in
(1020 mb)
NW 13.8 mph
(NW 22 kph)
- 10SM
11:55
Partly Cloudy
48°F / 9°C 28°F / -2°C 46% 30.12 in
(1020 mb)
WNW 15 mph
(WNW 24 kph)
- 10SM
11:35
Partly Cloudy
48°F / 9°C 28°F / -2°C 46% 30.12 in
(1020 mb)
NW 12.7 mph
(NW 20 kph)
- 10SM
11:15
Clear
48°F / 9°C 30°F / -1°C 50% 30.12 in
(1020 mb)
NW 16.1 mph
(NW 26 kph)
- 10SM
10:55
Clear
46°F / 8°C 30°F / -1°C 53% 30.12 in
(1020 mb)
NW 15 mph
(NW 24 kph)
- 10SM
10:35
Clear
48°F / 9°C 30°F / -1°C 50% 30.12 in
(1020 mb)
NW 16.1 mph
(NW 26 kph)
- 10SM
10:15
Clear
46°F / 8°C 28°F / -2°C 50% 30.09 in
(1019 mb)
NW 16.1 mph
(NW 26 kph)
- 10SM
09:55
Clear
46°F / 8°C 30°F / -1°C 53% 30.09 in
(1019 mb)
NW 11.5 mph
(NW 19 kph)
- 10SM
09:35
Clear
45°F / 7°C 30°F / -1°C 57% 30.09 in
(1019 mb)
NW 13.8 mph
(NW 22 kph)
- 10SM
09:15
Clear
45°F / 7°C 30°F / -1°C 57% 30.09 in
(1019 mb)
WNW 10.4 mph
(WNW 17 kph)
- 10SM
08:55
Clear
45°F / 7°C 30°F / -1°C 57% 30.06 in
(1018 mb)
W 10.4 mph
(W 17 kph)
- 10SM
08:35
Clear
43°F / 6°C 30°F / -1°C 61% 30.06 in
(1018 mb)
NW 11.5 mph
(NW 19 kph)
- 10SM
08:15
Clear
41°F / 5°C 30°F / -1°C 66% 30.06 in
(1018 mb)
NW 11.5 mph
(NW 19 kph)
- 10SM
07:55
Clear
39°F / 4°C 30°F / -1°C 70% 30.04 in
(1017 mb)
W 10.4 mph
(W 17 kph)
- 10SM
07:35
Clear
37°F / 3°C 30°F / -1°C 75% 30.04 in
(1017 mb)
W 8.1 mph
(W 13 kph)
- 10SM
07:15
Clear
36°F / 2°C 30°F / -1°C 81% 30.04 in
(1017 mb)
Calm - 10SM
06:55
Clear
34°F / 1°C 32°F / 0°C 93% 30.04 in
(1017 mb)
Calm - 10SM
06:35
Clear
37°F / 3°C 32°F / 0°C 81% 30.01 in
(1016 mb)
WNW 3.5 mph
(WNW 6 kph)
- 10SM
06:15
Clear
36°F / 2°C 32°F / 0°C 87% 30.01 in
(1016 mb)
Calm - 10SM
05:55
Clear
36°F / 2°C 34°F / 1°C 93% 29.98 in
(1015 mb)
WNW 4.6 mph
(WNW 7 kph)
- 10SM
05:35
Partly Cloudy
34°F / 1°C 34°F / 1°C 100% 29.98 in
(1015 mb)
W 3.5 mph
(W 6 kph)
- 7SM
05:15
Partly Cloudy
Fog And Mist
36°F / 2°C 36°F / 2°C 100% 29.98 in
(1015 mb)
Calm - 5SM
04:55
Partly Cloudy
Fog And Mist
36°F / 2°C 36°F / 2°C 100% 29.98 in
(1015 mb)
Calm - 2 1/2SM
04:35
Partly Cloudy
Fog And Mist
36°F / 2°C 36°F / 2°C 100% 29.98 in
(1015 mb)
NNW 3.5 mph
(NNW 6 kph)
- 3SM
04:15
Partly Cloudy
37°F / 3°C 37°F / 3°C 100% 29.95 in
(1014 mb)
Calm - 10SM
03:55
Partly Cloudy
39°F / 4°C 37°F / 3°C 93% 29.98 in
(1015 mb)
SE 3.5 mph
(SE 6 kph)
- 10SM
03:35
Mostly Cloudy
39°F / 4°C 37°F / 3°C 93% 29.98 in
(1015 mb)
E 3.5 mph
(E 6 kph)
- 10SM
03:15
Overcast
41°F / 5°C 39°F / 4°C 93% 29.98 in
(1015 mb)
Calm - 10SM
02:55
Overcast
41°F / 5°C 39°F / 4°C 93% 29.98 in
(1015 mb)
E 4.6 mph
(E 7 kph)
- 10SM
02:35
Overcast
41°F / 5°C 39°F / 4°C 93% 29.98 in
(1015 mb)
Calm - 10SM
02:15
Overcast
41°F / 5°C 39°F / 4°C 93% 30.01 in
(1016 mb)
E 4.6 mph
(E 7 kph)
- 10SM
01:55
Overcast
41°F / 5°C 39°F / 4°C 93% 30.01 in
(1016 mb)
Calm - 10SM
01:35
Overcast
43°F / 6°C 39°F / 4°C 87% 30.01 in
(1016 mb)
Calm - 10SM
01:15
Mostly Cloudy
41°F / 5°C 39°F / 4°C 93% 30.01 in
(1016 mb)
Calm - 10SM
00:55
Mostly Cloudy
41°F / 5°C 39°F / 4°C 93% 30.01 in
(1016 mb)
Calm - 10SM
00:35
Overcast
41°F / 5°C 39°F / 4°C 93% 30.01 in
(1016 mb)
Calm - 10SM
00:15
Overcast
41°F / 5°C 39°F / 4°C 93% 30.01 in
(1016 mb)
Calm - 10SM
Time Weather Temperature Dewpoint Humidity Pressure Winds Precip Visibility


Weather for websites

WeatherForYou.com, LLC is not responsible for any damages or problems caused by this service. Current weather conditions are obtained from the closest station including government and personal stations which may have varying degrees of accuracy. Weather forecasts are derived from the NOAA NDFD. Like all things, this site belongs to Jesus Christ... He just trusts me to maintain it. If you have any questions or comments email webmaster@weatherforyou.com

Copyright © 2014, WeatherForYou.com LLC. All rights reserved.